[[{"header":{"parameterUnit":"m.s-1","parameterCategory":1,"la1":30.2991,"la2":30.254,"lo1":-89.0895,"lo2":-89.0444,"dy":0.0017,"dx":0.0017,"nx":28,"ny":28,"refTime":"2024-08-02T03:00:00:Z","depth":0,"parameterNumber":2,"parameterNumberName":"U-component_of_WINDS"},"data":[0,0,0,0,0,0,0,0,0,0,0,0,0,0,0,0,0,0,0,0,0,0,0,0,0,0,0,0,0,0,0,0,0,0,0,0,0,0,0,0,0,0,0,0,0,0,0,0,0,0,0,0,0,0,0,0,0,0,2.709,2.7091,0,2.7141,2.7141,2.7142,2.7081,2.7079,2.7077,2.7075,2.7133,2.7136,2.714,0,0,0,0,0,0,0,0,0,0,0,0,0,2.6949,2.6952,2.709,2.7091,2.7091,2.7141,2.7141,2.7142,2.7082,2.7079,2.7076,2.7074,2.7131,2.7136,2.714,0,0,0,0,0,0,0,0,0,0,0,0,0,2.7006,2.6952,2.709,2.7067,2.7066,2.7141,2.7141,2.7142,2.7082,2.7079,2.7076,2.7072,2.713,2.7135,2.7141,2.7243,0,0,2.7157,2.716,0,0,0,0,0,0,0,0,2.7003,2.7011,2.707,2.7069,2.7067,2.7101,2.7113,2.7176,2.7083,2.7076,2.7075,2.7071,2.7125,2.7131,2.7148,2.7245,2.7248,2.7158,2.7161,2.7164,2.7165,0,0,0,0,0,0,0,2.6999,2.7009,2.711,2.7071,2.7069,2.7057,2.7061,2.7124,2.7119,2.7077,2.7072,2.7079,2.7124,2.7143,2.7149,2.7249,2.7158,2.7163,2.7166,2.7168,2.7435,2.7439,0,0,0,0,0,0,2.6997,2.7006,2.7109,2.7112,2.7026,2.7062,2.7067,2.7094,2.7118,2.7119,2.7082,2.7076,2.7135,2.7143,2.7151,2.7274,2.7164,2.7169,2.7172,2.7431,2.7436,2.744,0,0,0,0,0,0,2.6994,2.7006,2.7107,2.7058,2.7069,2.7068,2.7099,2.7097,2.7115,2.7122,2.7122,2.7101,2.7133,2.7143,2.722,2.7275,2.7171,2.7176,2.7427,2.7433,2.7438,2.7519,0,0,0,0,0,0,2.699,2.7006,2.7042,2.7059,2.7072,2.7174,2.7102,2.71,2.7124,2.7117,2.7141,2.7141,2.7131,2.7213,2.7226,2.728,2.718,2.7422,2.743,2.7436,2.7512,2.7527,2.754,0,0,0,0,0,2.6985,2.7064,2.7045,2.7057,2.7118,2.7177,2.7185,2.7169,2.7129,2.7167,2.7172,2.7141,2.7266,2.7221,2.7235,2.7293,2.7419,2.7427,2.7436,2.7505,2.7524,2.754,0,0,0,0,0,0,2.7056,2.7066,2.7044,2.713,2.7153,2.7166,2.7214,2.7189,2.7225,2.7217,2.7198,2.7204,2.7287,2.7297,2.7247,2.7394,2.7336,2.7348,2.7384,2.7402,2.7416,2.7412,2.7185,0,0,0,0,0,2.7081,2.7126,2.7133,2.7208,2.722,2.7216,2.7241,2.7227,2.725,2.726,2.727,2.7296,2.7342,2.7372,2.7414,2.7512,2.7518,2.7559,2.7573,2.7585,2.7596,2.7651,2.767,2.7468,2.7468,2.7468,0,0,2.7134,2.7145,2.7175,2.7223,2.7238,2.7288,2.7224,2.7278,2.7316,2.7269,2.7342,2.7351,2.7379,2.7468,2.7508,2.7479,2.7653,2.7596,2.7605,2.761,2.7662,2.7681,2.7698,2.7474,2.7473,2.7472,0,0,2.7256,2.7268,2.7333,2.7351,2.7375,2.7372,2.7387,2.7405,2.7409,2.7482,2.7449,2.7494,2.7572,2.7594,2.7615,2.7748,2.7722,2.7763,2.7837,2.7891,2.7907,2.7921,2.7971,2.7989,2.7773,2.7773,2.7774,0,2.732,2.7391,2.7371,2.7428,2.7451,2.741,2.7477,2.7496,2.7534,2.7552,2.7519,2.7617,2.7633,2.7728,2.776,2.7778,2.7798,2.776,2.7906,2.792,2.7933,2.798,2.7999,2.7778,2.7778,2.7777,2.7777,0,2.7469,2.7519,2.7569,2.7606,2.7635,2.7697,2.7689,2.7721,2.7705,2.7706,2.7783,2.78,2.7846,2.7868,2.7853,2.7961,2.7943,2.7909,2.785,2.7958,2.8002,2.802,2.7785,2.7784,2.7782,2.7781,0,0,2.7637,2.7662,2.7681,2.7698,2.7723,2.7763,2.7824,2.7867,2.7897,2.7925,2.7978,2.8046,2.8014,2.8039,2.8027,2.8074,2.8182,2.8034,2.8035,2.8063,2.8305,2.8332,2.8353,2.8164,2.8167,2.817,2.8303,0,2.7761,2.7866,2.7851,2.7953,2.8,2.7963,2.8017,2.804,2.8042,2.8085,2.8089,2.8138,2.8092,2.8107,2.8152,2.8159,2.823,2.8149,2.8216,2.8218,2.8211,2.8375,2.8404,2.8529,2.832,2.8323,2.8325,0,2.792,2.7953,2.8059,2.8079,2.8098,2.8147,2.8187,2.8227,2.8253,2.8252,2.828,2.826,2.8325,2.8265,2.8355,2.83,2.8327,2.8335,2.8339,2.8346,2.8279,2.8389,2.8568,2.8587,2.8352,2.8349,2.8348,0,2.8035,2.8106,2.8179,2.8195,2.8218,2.8254,2.8266,2.8288,2.8316,2.8352,2.837,2.8414,2.8438,2.8473,2.8466,2.8423,2.856,2.8498,2.8563,2.8563,2.8594,2.8593,2.8782,2.8609,2.8609,2.8608,2.8608,0,2.8176,2.8243,2.8231,2.8277,2.8352,2.8335,2.841,2.8418,2.8439,2.8487,2.8457,2.8504,2.8491,2.8538,2.8533,2.861,2.8621,2.8624,2.8622,2.8627,2.8627,2.8645,2.8637,2.8613,2.8612,2.8611,2.8611,0,2.8317,2.8311,2.8389,2.8405,2.8411,2.8466,2.8481,2.8526,2.8526,2.8588,2.8602,2.8604,2.8657,2.8653,2.8714,2.8711,2.8807,2.8794,2.8798,2.8796,2.8861,2.8856,2.907,2.9098,2.8906,2.8907,2.8909,0,2.8408,2.8459,2.8481,2.851,2.8524,2.8572,2.86,2.8586,2.8617,2.8652,2.8693,2.8743,2.8783,2.8871,2.8879,2.8926,2.8915,2.8987,2.8922,2.8927,2.8919,2.8916,2.8923,2.9001,2.9003,2.9005,2.9006,0,2.8572,2.8567,2.8607,2.8648,2.8682,2.8714,2.8743,2.8769,2.8758,2.8795,2.8849,2.888,2.8941,2.8993,2.9038,2.9053,2.9029,2.9026,2.9044,2.9051,2.9051,2.9054,2.8834,2.9022,2.902,2.9019,2.9018,2.9018,2.8692,2.8736,2.8759,2.8806,2.8826,2.8854,2.8897,2.8903,2.8947,2.8995,2.8984,2.9046,2.9073,2.913,2.915,2.9199,2.9174,2.9199,2.9206,2.9212,2.9221,2.9042,2.9207,2.9207,2.9206,2.9206,2.9206,0,2.8856,2.8869,2.8912,2.8953,2.8991,2.8963,2.8994,2.9028,2.9082,2.9108,2.9148,2.9211,2.9261,2.9273,2.9322,2.936,2.935,2.9373,2.9371,2.9375,2.924,2.922,2.938,2.938,2.938,2.938,2.938,2.938,2.8945,2.9019,2.9017,2.9102,2.9115,2.9173,2.9194,2.9221,2.9242,2.9313,2.9354,2.9361,2.9383,2.9433,2.9479,2.9482,2.9502,2.953,2.9528,2.9402,2.9385,2.9368,2.935,2.9534,2.9534,2.966,2.9661,2.9662]},{"header":{"parameterUnit":"m.s-1","parameterCategory":1,"la1":30.2991,"la2":30.254,"lo1":-89.0895,"lo2":-89.0444,"dy":0.0017,"dx":0.0017,"nx":28,"ny":28,"refTime":"2024-08-02T03:00:00:Z","depth":0,"parameterNumber":3,"parameterNumberName":"V-component_of_WINDS"},"data":[0,0,0,0,0,0,0,0,0,0,0,0,0,0,0,0,0,0,0,0,0,0,0,0,0,0,0,0,0,0,0,0,0,0,0,0,0,0,0,0,0,0,0,0,0,0,0,0,0,0,0,0,0,0,0,0,0,0,2.5047,2.5048,0,2.5201,2.5203,2.5204,2.5254,2.5253,2.5252,2.5252,2.5406,2.5411,2.5415,0,0,0,0,0,0,0,0,0,0,0,0,0,2.4788,2.4792,2.5046,2.5048,2.505,2.5201,2.5203,2.5205,2.5254,2.5253,2.5252,2.5252,2.5404,2.541,2.5416,0,0,0,0,0,0,0,0,0,0,0,0,0,2.4917,2.4794,2.5046,2.5093,2.5099,2.52,2.5203,2.5205,2.5254,2.5253,2.5252,2.5251,2.5403,2.541,2.5417,2.5481,0,0,2.5438,2.5441,0,0,0,0,0,0,0,0,2.4909,2.4926,2.5084,2.509,2.5097,2.5207,2.5168,2.5298,2.5254,2.5195,2.5252,2.5251,2.534,2.5353,2.5384,2.5488,2.5495,2.5439,2.5443,2.5446,2.5448,0,0,0,0,0,0,0,2.49,2.492,2.5107,2.5086,2.5094,2.5104,2.5121,2.5193,2.5271,2.52,2.5204,2.5222,2.5344,2.5377,2.5388,2.5497,2.5439,2.5445,2.5449,2.5452,2.5658,2.5659,0,0,0,0,0,0,2.4884,2.4912,2.5103,2.5112,2.4999,2.511,2.5129,2.5173,2.5271,2.5285,2.5223,2.5224,2.5365,2.5379,2.5393,2.5473,2.5446,2.5453,2.5457,2.5657,2.5658,2.566,0,0,0,0,0,0,2.4879,2.4901,2.5096,2.5013,2.5039,2.5115,2.5164,2.5176,2.521,2.5288,2.5302,2.5243,2.5365,2.5383,2.5458,2.5479,2.5456,2.5463,2.5656,2.5657,2.5659,2.5635,0,0,0,0,0,0,2.4871,2.4899,2.4926,2.5014,2.5043,2.5161,2.5165,2.518,2.5222,2.5225,2.531,2.5323,2.5365,2.5447,2.5465,2.5489,2.5468,2.5654,2.5656,2.5659,2.5634,2.5635,2.5637,0,0,0,0,0,2.4862,2.4913,2.4927,2.495,2.5079,2.5162,2.5179,2.5227,2.5224,2.525,2.53,2.5321,2.5474,2.5455,2.5475,2.5501,2.5653,2.5656,2.5658,2.5633,2.5635,2.5637,0,0,0,0,0,0,2.4825,2.4925,2.4942,2.5024,2.5084,2.517,2.5206,2.5228,2.529,2.529,2.5346,2.5365,2.5435,2.5475,2.5452,2.5566,2.5564,2.5571,2.5538,2.554,2.5542,2.553,2.5474,0,0,0,0,0,2.4827,2.4887,2.4971,2.5035,2.5064,2.5129,2.5167,2.5199,2.5263,2.5289,2.5344,2.5404,2.5466,2.5505,2.5566,2.5639,2.5657,2.5667,2.5668,2.5669,2.5674,2.5713,2.5717,2.5669,2.5669,2.5669,0,0,2.483,2.4893,2.4928,2.5029,2.5079,2.5138,2.5151,2.5214,2.5257,2.5298,2.5372,2.5414,2.5485,2.5558,2.5593,2.5594,2.5691,2.5672,2.5672,2.5678,2.5716,2.572,2.5724,2.567,2.567,2.567,0,0,2.4868,2.4922,2.4979,2.5029,2.5105,2.5148,2.5161,2.5244,2.5273,2.5349,2.5379,2.5431,2.5536,2.5584,2.5622,2.5672,2.5693,2.569,2.5698,2.5734,2.5738,2.5742,2.5758,2.5763,2.5695,2.5695,2.5695,0,2.4862,2.4955,2.5006,2.5067,2.5109,2.5148,2.5205,2.525,2.5342,2.5369,2.5369,2.5499,2.555,2.5633,2.5645,2.5675,2.569,2.5682,2.5734,2.5738,2.5742,2.5758,2.5764,2.5695,2.5695,2.5695,2.5695,0,2.4943,2.5007,2.5044,2.5131,2.5177,2.5236,2.5293,2.5333,2.5359,2.5401,2.5474,2.5536,2.5608,2.563,2.5657,2.5717,2.5715,2.5723,2.5722,2.5745,2.5761,2.5767,2.5693,2.5694,2.5694,2.5694,0,0,2.4965,2.5077,2.509,2.5129,2.5214,2.5262,2.532,2.5392,2.5424,2.5485,2.5533,2.5619,2.5627,2.567,2.5702,2.5734,2.5767,2.5738,2.5741,2.574,2.5833,2.5825,2.5832,2.578,2.5781,2.5782,2.5826,0,2.5012,2.512,2.5165,2.5251,2.5308,2.5344,2.5395,2.545,2.549,2.5542,2.5584,2.5644,2.565,2.5676,2.571,2.5756,2.5786,2.5753,2.5824,2.5826,2.5805,2.5841,2.5834,2.5873,2.5833,2.5834,2.5835,0,2.5082,2.5143,2.5235,2.5309,2.5335,2.538,2.5447,2.5497,2.556,2.5586,2.5632,2.5661,2.572,2.5714,2.5795,2.5771,2.5802,2.5829,2.5831,2.584,2.5832,2.5849,2.5887,2.5892,2.5845,2.5844,2.5844,0,2.5086,2.519,2.5258,2.5291,2.538,2.541,2.5448,2.551,2.5549,2.5607,2.5632,2.5695,2.573,2.5777,2.5821,2.5813,2.5897,2.5895,2.5918,2.5917,2.5935,2.5933,2.5977,2.5955,2.5955,2.5955,2.5955,0,2.5133,2.5188,2.5261,2.5303,2.5363,2.5413,2.5471,2.5511,2.5565,2.5613,2.5647,2.5691,2.5747,2.5797,2.5832,2.5892,2.5907,2.5928,2.5937,2.5925,2.5922,2.5946,2.5945,2.5956,2.5956,2.5956,2.5955,0,2.5149,2.52,2.5276,2.5354,2.5375,2.5415,2.5481,2.5521,2.556,2.562,2.5637,2.5698,2.5759,2.5807,2.5886,2.5909,2.5971,2.5981,2.5951,2.5955,2.5975,2.5972,2.6036,2.6046,2.6017,2.6018,2.6018,0,2.5176,2.5218,2.53,2.5335,2.5373,2.5429,2.5469,2.5518,2.5557,2.5629,2.566,2.5722,2.5776,2.5869,2.5919,2.5979,2.599,2.6008,2.5999,2.5985,2.5988,2.5985,2.5989,2.6009,2.6009,2.6009,2.6009,0,2.5217,2.524,2.5297,2.5361,2.5407,2.546,2.5514,2.5539,2.5598,2.5639,2.5702,2.5743,2.5822,2.5883,2.5947,2.5983,2.6005,2.6011,2.6019,2.6008,2.5988,2.5998,2.5952,2.601,2.601,2.601,2.601,2.601,2.5239,2.5277,2.534,2.5401,2.5446,2.5494,2.5535,2.5579,2.5632,2.5702,2.5726,2.5789,2.5847,2.5935,2.5971,2.602,2.6022,2.6034,2.6037,2.6039,2.6037,2.598,2.6031,2.6031,2.6031,2.6032,2.6032,0,2.5281,2.5322,2.5378,2.5451,2.5498,2.5515,2.5574,2.5611,2.5667,2.5719,2.577,2.5839,2.5897,2.5951,2.6011,2.6039,2.605,2.6053,2.6051,2.6059,2.6033,2.6019,2.6043,2.6043,2.6043,2.6043,2.6043,2.6043,2.5308,2.5373,2.5403,2.5489,2.5529,2.5593,2.5624,2.5668,2.571,2.5786,2.5835,2.587,2.5922,2.5985,2.6038,2.6052,2.6071,2.6072,2.6088,2.6063,2.6061,2.6059,2.6047,2.6076,2.6076,2.611,2.611,2.611]}]]